Regional Weather Roundup
Issued by NWS Midland/Odessa, TX

Skip options and go directly to product.
Home | Oldest Version | Previous Version | Current Version | All | Text Only | Save Text | Print | Product List | Glossary Off

Skip product version selection by date and time.   

942
ASUS44 KMAF 290201
RWRMAF
MIDLAND AREA WEATHER ROUNDUP
NATIONAL WEATHER SERVICE MIDLAND TX
900 PM CDT THU JUL 28 2016

...IN SOUTHWEST TEXAS AND SOUTHEAST NEW MEXICO...

CITY           SKY/WX    TMP DP  RH WIND       PRES   REMARKS
ALPINE         CLEAR     78  59  50 SE9       30.15R
ANDREWS        FAIR      87  59  38 SE8       30.02R
ARTESIA        CLEAR     90  59  35 S16       30.01R
BIG SPRING     CLOUDY    81  67  63 SE14      30.03R
CARLSBAD       CLEAR     88  57  34 S8        29.99R
DRYDEN           N/A     84  64  50 SE13      29.96R
FORT STOCKTON  CLEAR     86  61  42 SE15G21   30.00R
GUAD PASS      CLEAR     79  53  40 E21       30.16R
HOBBS          CLEAR     86  55  35 SE8       30.05R
MARFA          CLEAR     78  56  46 E13       30.12R
MIDLAND AIRPK  MOCLDY    82  66  58 S9        30.01S
MIDLAND INTL   TSTM      78  68  71 SW6       30.01R
ODESSA         CLOUDY    85  61  44 E20G31    30.02R
PECOS          CLEAR     92  56  30 E9        29.95R
PRESIDIO       FAIR      89  60  37 E12G23    29.93R
SEMINOLE       CLEAR     86  57  36 SE7       30.04R
SNYDER           N/A     83  66  56 E5        30.00R
WINK           CLEAR     91  56  30 SE9       29.96R
$$
...OTHER STATIONS IN TEXAS...

CITY           SKY/WX    TMP DP  RH WIND       PRES   REMARKS
ABILENE        CLOUDY    82  67  60 E3        29.98R
AMARILLO       CLEAR     82  56  40 SE8       30.06S
AUSTIN         MOCLDY    78  73  84 S7        29.97R
BROWNSVILLE    PTCLDY    85  77  77 SE9       29.93R
CORPUS CHRISTI MOCLDY    84  76  76 SE9       29.94S
DALLAS FTW     CLOUDY    83  71  67 S18G28    29.94R
DEL RIO        MOCLDY    83  68  60 SE10      29.93R
EL PASO        MOCLDY    92  52  25 E10       29.98S
HOUSTON INT    MOCLDY    78  75  90 E5        29.97S
LUBBOCK        PTCLDY    87  62  43 SE9       30.03R
SAN ANGELO     CLOUDY    91  55  29 S8        29.94S
SAN ANTONIO    CLOUDY    77  67  71 S12       29.99S
WACO           CLOUDY    85  69  58 SE9       29.96R
WICHITA FALLS  NOT AVBL
$$
...OTHER LOCATIONS IN NEW MEXICO...

CITY           SKY/WX    TMP DP  RH WIND       PRES   REMARKS
ALAMAGORDO     CLEAR     93  48  21 N9        30.01R
ALBUQUERQUE    MOCLDY    89  43  20 SE7       30.10S
CANNON AFB     CLEAR     82  58  44 SE8       30.08S
CLOVIS         CLEAR     82  54  36 SE7       30.09R
HOLLOMAN AFB   CLEAR     94  48  20 W7        29.99R
ROSWELL        CLEAR     92  54  27 SE7       30.00R
RUIDOSO          N/A     77  43  29 SE8       30.29S
SANTA FE       PTCLDY    84  35  17 N8        30.19R
TRUTH OR CONSE PTCLDY    92  42  17 CALM      30.05R
TUCUMCARI      MOCLDY    87  51  28 S8        30.04R
$$

USA.gov is the U.S. government's official web portal to all federal, state and local government web resources and services.